FW1737 Weather Reports


Display with metric or nautical units.
time (UTC)temp
F
wind
direction
speed
MPH
gust
MPH
rain 1hr
in
rain 24hr
in
rain mn
in
humidity
%
barometer
mb
20260904044519 61 133 0.0 1.0 0.00 0.00 0.00 96 1017.6
20260904043017 61 133 0.0 0.0 0.00 0.00 0.00 95 1017.7
20260904041516 61 133 0.0 0.0 0.00 0.00 0.00 94 1017.7
20260904040013 61 133 0.0 1.0 0.00 0.00 0.00 94 1017.8
20260904034510 62 134 0.0 3.0 0.00 0.00 0.00 93 1018.1
20260904033008 62 138 0.0 4.0 0.00 0.00 0.00 93 1018.2
20260904031507 62 144 2.0 8.0 0.00 0.00 0.00 93 1018.3
20260904030006 62 139 2.0 8.0 0.00 0.00 0.00 93 1018.5
20260904024504 62 94 2.0 7.0 0.00 0.00 0.00 94 1018.5
20260904023002 62 138 0.0 7.0 0.00 0.00 0.00 93 1018.5
20260904021501 62 111 2.0 7.0 0.00 0.00 0.00 93 1018.8
20260904020100 62 144 1.0 8.0 0.00 0.00 0.00 93 1018.9
20260904014638 62 152 2.0 6.0 0.00 0.00 0.00 93 1018.9
20260904013057 62 148 1.0 5.0 0.00 0.00 0.00 94 1019.1
20260904011607 62 151 1.0 5.0 0.00 0.00 0.00 94 1019.2
20260904004556 61 167 1.0 9.0 0.00 0.00 0.00 97 1019.6
20260904003101 60 192 1.0 6.0 0.00 0.00 0.00 97 1019.5
20260904001552 60 108 0.0 0.0 0.00 0.00 0.00 96 1019.7
20260904000052 61 121 0.0 1.0 0.00 0.00 0.00 96 1019.9
20260903234550 61 121 0.0 0.0 0.00 0.00 0.00 95 1019.9
20260903233103 61 121 0.0 1.0 0.00 0.00 0.00 94 1020.0
20260903231546 62 121 0.0 2.0 0.00 0.00 0.00 94 1019.9
20260903230049 62 121 0.0 0.0 0.00 0.00 0.00 93 1020.0
20260903224540 63 121 1.0 6.0 0.00 0.00 0.00 92 1020.0
20260903223040 63 105 0.0 3.0 0.00 0.00 0.00 92 1020.0
20260903221539 63 95 1.0 6.0 0.00 0.00 0.00 91 1020.1
20260903220049 64 103 1.0 6.0 0.00 0.00 0.00 90 1020.3
20260903214538 64 84 0.0 3.0 0.00 0.00 0.00 92 1020.3
20260903213035 64 120 4.0 9.0 0.00 0.00 0.00 90 1020.4
20260903211535 64 142 1.0 7.0 0.00 0.00 0.00 88 1020.5
20260903210035 65 98 6.0 10.0 0.00 0.00 0.00 87 1020.4
20260903204534 66 146 5.0 11.0 0.00 0.00 0.00 84 1020.4
20260903203033 67 160 3.0 9.0 0.00 0.00 0.00 82 1020.5
20260903201533 67 143 2.0 9.0 0.00 0.00 0.00 84 1020.6
20260903200031 66 89 3.0 6.0 0.00 0.00 0.00 87 1020.6
20260903194530 66 86 4.0 6.0 0.00 0.00 0.00 89 1020.8
20260903193028 65 88 2.0 4.0 0.00 0.00 0.00 88 1021.0
20260903191527 65 107 2.0 8.0 0.00 0.00 0.00 86 1021.1
20260903190028 68 134 8.0 12.0 0.00 0.00 0.00 76 1021.1
20260903184526 68 101 3.0 11.0 0.00 0.00 0.00 78 1021.0
20260903183025 69 108 8.0 15.0 0.00 0.00 0.00 73 1021.1
20260903181524 69 126 6.0 11.0 0.00 0.00 0.00 74 1021.1
20260903180030 69 114 7.0 13.0 0.00 0.00 0.00 72 1021.2
20260903174523 70 107 7.0 14.0 0.00 0.00 0.00 71 1021.1
20260903173022 71 171 7.0 14.0 0.00 0.00 0.00 69 1021.3
20260903171528 70 143 5.0 14.0 0.00 0.00 0.00 72 1021.3
20260903170034 71 131 8.0 14.0 0.00 0.00 0.00 69 1021.3
20260903164522 71 112 3.0 13.0 0.00 0.00 0.00 70 1021.4
20260903163023 71 153 8.0 15.0 0.00 0.00 0.00 70 1021.5
20260903161516 70 161 6.0 14.0 0.00 0.00 0.00 71 1021.5
20260903160014 70 169 7.0 13.0 0.00 0.00 0.00 71 1021.8
20260903154513 69 115 9.0 13.0 0.00 0.00 0.00 72 1022.1
20260903153011 70 205 5.0 15.0 0.00 0.00 0.00 72 1022.1
20260903151514 70 209 7.0 13.0 0.00 0.00 0.00 68 1022.2
20260903150032 70 182 4.0 12.0 0.00 0.00 0.00 69 1022.2
20260903144516 69 197 4.0 10.0 0.00 0.00 0.00 69 1022.3
20260903143005 69 149 3.0 10.0 0.00 0.00 0.00 69 1022.4
20260903141503 69 207 6.0 10.0 0.00 0.00 0.00 70 1022.5
20260903140100 68 146 2.0 8.0 0.00 0.00 0.00 74 1022.6
20260903134614 66 186 3.0 8.0 0.00 0.00 0.00 77 1022.7
20260903133055 65 211 4.0 8.0 0.00 0.00 0.00 84 1022.7
20260903131550 64 71 0.0 2.0 0.00 0.00 0.00 89 1022.7
20260903130044 62 71 0.0 0.0 0.00 0.00 0.00 95 1022.8
20260903124550 60 105 0.0 0.0 0.00 0.00 0.00 97 1023.0
20260903123039 60 105 0.0 0.0 0.00 0.00 0.00 99 1023.0
20260903121535 58 267 0.0 0.0 0.00 0.00 0.00 100 1023.2
20260903120031 56 267 0.0 0.0 0.00 0.00 0.00 100 1023.1
20260903114527 53 267 0.0 0.0 0.00 0.00 0.00 100 1023.4
20260903113023 50 267 0.0 0.0 0.00 0.00 0.00 100 1023.3
20260903111523 50 267 0.0 0.0 0.00 0.00 0.00 100 1023.3
20260903110022 49 267 0.0 0.0 0.00 0.00 0.00 100 1023.3
20260903104523 48 267 0.0 0.0 0.00 0.00 0.00 100 1023.3
20260903103021 47 267 0.0 0.0 0.00 0.00 0.00 100 1023.2
20260903101520 47 267 0.0 0.0 0.00 0.00 0.00 100 1023.2
20260903100024 46 267 0.0 0.0 0.00 0.00 0.00 100 1023.1
20260903094519 46 267 0.0 0.0 0.00 0.00 0.00 100 1023.0
20260903093019 46 267 0.0 0.0 0.00 0.00 0.00 100 1023.0
20260903091519 45 267 0.0 0.0 0.00 0.00 0.00 100 1022.8
20260903090018 46 267 0.0 0.0 0.00 0.00 0.00 100 1022.9
20260903084527 46 267 0.0 0.0 0.00 0.00 0.00 100 1022.9
20260903083012 46 267 0.0 0.0 0.00 0.00 0.00 100 1023.1
20260903081510 46 267 0.0 0.0 0.00 0.00 0.00 100 1023.1
20260903080008 47 267 0.0 0.0 0.00 0.00 0.00 100 1023.2
20260903074507 47 267 0.0 0.0 0.00 0.00 0.00 100 1023.2
20260903073008 47 267 0.0 0.0 0.00 0.00 0.00 100 1023.2
20260903071505 47 267 0.0 0.0 0.00 0.00 0.00 100 1023.3
20260903070003 48 267 0.0 0.0 0.00 0.00 0.00 100 1023.3
20260903064502 48 267 0.0 0.0 0.00 0.00 0.00 100 1023.2
20260903063001 48 267 0.0 0.0 0.00 0.00 0.00 100 1023.1
20260903061601 48 267 0.0 0.0 0.00 0.00 0.00 100 1023.3
20260903060057 49 267 0.0 0.0 0.00 0.00 0.00 100 1023.4
20260903054557 49 267 0.0 3.0 0.00 0.00 0.00 100 1023.5
20260903053113 49 267 2.0 4.0 0.00 0.00 0.00 100 1023.4
20260903051553 48 267 0.0 0.0 0.00 0.00 0.00 99 1023.5